Greenville, AL

6:24 AM CDT on July 29, 2016 (GMT -0500)
Greenville Municipal

Weather History for KPRN - September, 2013

Change the Weather History Date:

Thursday, September 12, 2013

  Actual Average Record
Temperature  
Mean Temperature 78 °F -  
Max Temperature 91 °F 88 °F 95 °F (1954)
Min Temperature 66 °F 66 °F 50 °F (1940)
Cooling Degree Days 14    
Growing Degree Days 28 (Base 50)    
Moisture  
Dew Point 65 °F    
Average Humidity 68    
Maximum Humidity 90    
Minimum Humidity 34    
Precipitation  
Precipitation 0.00 in - - ()
Sea Level Pressure  
Sea Level Pressure 30.00 in    
Wind  
Wind Speed 1 mph (NE)    
Max Wind Speed 6 mph    
Max Gust Speed -    
Visibility 10 miles    
Events      
Averages and records for this station are not official NWS values.
T = Trace of Precipitation, MM = Missing Value Source: NWS Daily Summary

Daily Weather History Graph

Daily Weather History Graph

Search for Another Location

Airport or City:

Trip Planner

Search our weather history database for the weather conditions in past years. The results will help you decide how hot, cold, wet, or windy it might be!

Date:

Astronomy

Sep. 12, 2013 Rise Set
Actual Time 6:28 AM CDT 6:55 PM CDT
Civil Twilight 6:04 AM CDT 7:20 PM CDT
Nautical Twilight 5:35 AM CDT 7:49 PM CDT
Astronomical Twilight 5:06 AM CDT 8:18 PM CDT
Moon 1:32 PM CDT (9/12) No Moon Set
Length of Visible Light 13h 16m
Length of Day
12h 27m
Waxing Crescent, 50% of the Moon is Illuminated
Sep 12
Waxing Crescent
Sep 12
First Quarter
Sep 19
Full
Sep 26
Last Quarter
Oct 4
New

Hourly Weather History & Observations

Time (CDT) Temp. Heat Index Dew Point Humidity Pressure Visibility Wind Dir Wind Speed Gust Speed Precip Events Conditions
12:56 AM 69.1 °F - 64.9 °F 87% 30.05 in 9.0 mi Calm Calm - N/A   Clear
1:56 AM 69.1 °F - 66.0 °F 90% 30.05 in 9.0 mi Calm Calm - N/A   Clear
2:56 AM 68.0 °F - 64.9 °F 90% 30.05 in 10.0 mi Calm Calm - N/A   Clear
3:56 AM 68.0 °F - 64.9 °F 90% 30.05 in 10.0 mi Calm Calm - N/A   Clear
4:56 AM 66.9 °F - 63.0 °F 87% 30.06 in 9.0 mi Calm Calm - N/A   Clear
5:56 AM 66.9 °F - 64.0 °F 90% 30.06 in 10.0 mi Calm Calm - N/A   Clear
6:56 AM 68.0 °F - 64.9 °F 90% 30.07 in 10.0 mi Calm Calm - N/A   Clear
7:56 AM 73.9 °F - 68.0 °F 82% 30.07 in 10.0 mi Calm Calm - N/A   Clear
8:56 AM 80.1 °F 83.2 °F 70.0 °F 71% 30.06 in 10.0 mi Calm Calm - N/A   Clear
9:56 AM 84.9 °F 88.8 °F 69.1 °F 59% 30.06 in 10.0 mi Calm Calm - N/A   Clear
10:56 AM 87.1 °F 89.2 °F 66.0 °F 49% 30.05 in 10.0 mi East 5.8 mph - N/A   Clear
11:56 AM 90.0 °F 91.3 °F 64.0 °F 42% 30.04 in 10.0 mi East 4.6 mph - N/A   Partly Cloudy
12:56 PM 91.9 °F 91.8 °F 61.0 °F 35% 30.02 in 10.0 mi Variable 3.5 mph - N/A   Partly Cloudy
1:56 PM 91.9 °F 92.5 °F 62.1 °F 37% 29.99 in 10.0 mi NNE 4.6 mph - N/A   Partly Cloudy
2:56 PM 91.9 °F 91.5 °F 60.1 °F 34% 29.96 in 10.0 mi ENE 4.6 mph - N/A   Clear
3:56 PM 90.0 °F 88.8 °F 57.9 °F 34% 29.94 in 10.0 mi NE 3.5 mph - N/A   Clear
4:56 PM 91.0 °F 90.2 °F 59.0 °F 34% 29.92 in 10.0 mi North 4.6 mph - N/A   Clear
5:56 PM 89.1 °F 89.3 °F 62.1 °F 40% 29.93 in 10.0 mi North 4.6 mph - N/A   Clear
6:56 PM 82.0 °F 84.1 °F 66.0 °F 58% 29.92 in 10.0 mi Calm Calm - N/A   Clear
7:56 PM 77.0 °F - 70.0 °F 79% 29.94 in 10.0 mi Calm Calm - N/A   Clear
8:56 PM 73.0 °F - 68.0 °F 84% 29.95 in 10.0 mi Calm Calm - N/A   Clear
9:56 PM 72.0 °F - 66.9 °F 84% 29.95 in 10.0 mi Calm Calm - N/A   Clear
10:56 PM 70.0 °F - 66.0 °F 87% 29.95 in 10.0 mi Calm Calm - N/A   Clear
11:56 PM 69.1 °F - 64.9 °F 87% 29.94 in 10.0 mi Calm Calm - N/A   Clear